Location: Saint-Gilles les Bains
(21.0539°S, 55.2287°E)
Time: 21:01:15
(UTC+04:00)

Hubble Space Telescope - Pass Details

Date: 24 June 2021
Orbit: 535 x 539 km, 28.5° (Epoch: 25 July)

Event Time Altitude Azimuth Distance (km) Brightness Sun altitude
Exits shadow 04:53:12 39° 53° (NE) 811 2.0 -27.7°
Drops below altitude 10° 04:55:55 10° 62° (ENE) 1,788 4.4 -27.1°
Sets 04:58:11 0° 64° (ENE) 2,676 5.6 -26.6°
